• In Uzbekistan
  • List of Countries
  • For 7 days
  • Water Temperature
  • Satellite Maps
  • Weather Map
  • Weather Widgets
  • user-avatar
    Login

    Hourly Weather Wuhan

    Today, 18 November, Sunday

    Time Temperature Precipitation Wind Pressure Humidity
    00:00 +8°C° 0.1 mm 5 mps 765 mmHg 81%
    01:00 +8°C° 0.1 mm 4 mps 765 mmHg 81%
    02:00 +9°C° 0 mm 3 mps 764 mmHg 81%
    03:00 +7°C° 0.9 mm 4 mps 764 mmHg 82%
    04:00 +7°C° 0.9 mm 4 mps 765 mmHg 84%
    05:00 +7°C° 0.9 mm 4 mps 765 mmHg 85%
    06:00 +7°C° 0.8 mm 4 mps 765 mmHg 85%
    07:00 +7°C° 0.8 mm 4 mps 765 mmHg 85%
    08:00 +7°C° 0 mm 4 mps 766 mmHg 84%
    09:00 +7°C° 0.3 mm 4 mps 766 mmHg 81%
    10:00 +9°C° 0.3 mm 3 mps 766 mmHg 79%
    11:00 +9°C° 0.3 mm 3 mps 766 mmHg 77%
    12:00 +10°C° 0 mm 3 mps 765 mmHg 72%
    13:00 +11°C° 0 mm 3 mps 765 mmHg 67%
    14:00 +12°C° 0 mm 3 mps 765 mmHg 62%
    15:00 +13°C° 0 mm 2 mps 765 mmHg 62%
    16:00 +13°C° 0 mm 2 mps 765 mmHg 62%
    17:00 +13°C° 0 mm 2 mps 765 mmHg 62%
    18:00 +13°C° 0 mm 1 mps 765 mmHg 65%
    19:00 +12°C° 0 mm 1 mps 765 mmHg 68%
    20:00 +11°C° 0 mm 1 mps 766 mmHg 71%
    21:00 +11°C° 0 mm 1 mps 766 mmHg 73%
    22:00 +11°C° 0 mm 1 mps 766 mmHg 75%
    23:00 +10°C° 0 mm 1 mps 766 mmHg 77%

    Tomorrow, 19 November, Monday

    Time Temperature Precipitation Wind Pressure Humidity
    00:00 +10°C° 0 mm 1 mps 766 mmHg 78%
    01:00 +10°C° 0 mm 1 mps 766 mmHg 79%
    02:00 +10°C° 0 mm 1 mps 766 mmHg 80%
    03:00 +8°C° 0 mm 0 mps 766 mmHg 81%
    04:00 +8°C° 0 mm 0 mps 766 mmHg 81%
    05:00 +8°C° 0 mm 0 mps 766 mmHg 82%
    06:00 +8°C° 0 mm 0 mps 766 mmHg 80%
    07:00 +9°C° 0 mm 1 mps 766 mmHg 79%
    08:00 +10°C° 0 mm 1 mps 766 mmHg 78%
    09:00 +11°C° 0 mm 1 mps 766 mmHg 72%
    10:00 +13°C° 0 mm 2 mps 766 mmHg 65%
    11:00 +14°C° 0 mm 2 mps 766 mmHg 58%
    12:00 +15°C° 0 mm 2 mps 766 mmHg 56%
    13:00 +15°C° 0 mm 2 mps 765 mmHg 54%
    14:00 +16°C° 0 mm 2 mps 764 mmHg 52%
    15:00 +16°C° 0 mm 2 mps 764 mmHg 55%
    16:00 +15°C° 0 mm 2 mps 764 mmHg 58%
    17:00 +15°C° 0 mm 2 mps 764 mmHg 61%
    18:00 +15°C° 0.3 mm 1 mps 765 mmHg 64%
    19:00 +14°C° 0.3 mm 1 mps 765 mmHg 68%
    20:00 +13°C° 0.3 mm 0 mps 765 mmHg 72%
    21:00 +14°C° 0.3 mm 1 mps 765 mmHg 74%
    22:00 +14°C° 0.3 mm 1 mps 765 mmHg 77%
    23:00 +13°C° 0.3 mm 1 mps 765 mmHg 79%

    Day after tomorrow, 20 November, Tuesday

    Time Temperature Precipitation Wind Pressure Humidity
    00:00 +13°C° 0 mm 1 mps 765 mmHg 80%
    01:00 +13°C° 0 mm 1 mps 764 mmHg 81%
    02:00 +12°C° 0 mm 1 mps 764 mmHg 82%
    03:00 +12°C° 0 mm 1 mps 764 mmHg 83%
    04:00 +12°C° 0 mm 1 mps 763 mmHg 84%
    05:00 +10°C° 0 mm 2 mps 763 mmHg 86%
    06:00 +12°C° 0 mm 2 mps 763 mmHg 85%
    07:00 +12°C° 0 mm 2 mps 763 mmHg 84%
    08:00 +12°C° 0 mm 1 mps 763 mmHg 83%
    09:00 +14°C° 0 mm 2 mps 764 mmHg 76%
    10:00 +15°C° 0 mm 2 mps 764 mmHg 70%
    11:00 +16°C° 0 mm 2 mps 764 mmHg 63%
    12:00 +17°C° 0 mm 2 mps 763 mmHg 61%
    13:00 +18°C° 0 mm 2 mps 762 mmHg 59%
    14:00 +18°C° 0 mm 2 mps 761 mmHg 56%
    15:00 +19°C° 0.1 mm 1 mps 761 mmHg 60%
    16:00 +19°C° 0.1 mm 1 mps 761 mmHg 63%
    17:00 +18°C° 0.1 mm 1 mps 761 mmHg 67%
    18:00 +18°C° 0.7 mm 1 mps 761 mmHg 71%
    19:00 +16°C° 0.7 mm 1 mps 762 mmHg 75%
    20:00 +16°C° 0.7 mm 1 mps 762 mmHg 78%
    21:00 +16°C° 1.2 mm 1 mps 762 mmHg 80%
    22:00 +16°C° 1.2 mm 2 mps 763 mmHg 82%
    23:00 +15°C° 1.2 mm 2 mps 763 mmHg 83%

    21 November, Wednesday

    Time Temperature Precipitation Wind Pressure Humidity
    00:00 +14°C° 1.2 mm 3 mps 763 mmHg 82%
    01:00 +14°C° 1.2 mm 4 mps 763 mmHg 81%
    02:00 +13°C° 1.2 mm 5 mps 763 mmHg 79%
    03:00 +13°C° 0.1 mm 5 mps 763 mmHg 78%
    04:00 +13°C° 0.1 mm 5 mps 763 mmHg 77%
    05:00 +13°C° 0.1 mm 5 mps 764 mmHg 76%
    06:00 +13°C° 0 mm 5 mps 764 mmHg 75%
    07:00 +12°C° 0 mm 5 mps 765 mmHg 73%
    08:00 +11°C° 0 mm 6 mps 766 mmHg 71%
    09:00 +13°C° 0 mm 6 mps 766 mmHg 67%
    10:00 +14°C° 0 mm 7 mps 766 mmHg 62%
    11:00 +15°C° 0 mm 8 mps 767 mmHg 58%
    12:00 +16°C° 0 mm 8 mps 766 mmHg 55%
    13:00 +16°C° 0 mm 7 mps 766 mmHg 53%
    14:00 +16°C° 0 mm 7 mps 765 mmHg 50%
    15:00 +16°C° 0 mm 6 mps 766 mmHg 51%
    16:00 +15°C° 0 mm 5 mps 766 mmHg 53%
    17:00 +15°C° 0 mm 4 mps 766 mmHg 54%
    18:00 +14°C° 0 mm 4 mps 767 mmHg 55%
    19:00 +14°C° 0 mm 4 mps 767 mmHg 55%
    20:00 +14°C° 0 mm 3 mps 768 mmHg 56%
    21:00 +13°C° 0 mm 3 mps 768 mmHg 55%
    22:00 +13°C° 0 mm 3 mps 768 mmHg 53%
    23:00 +13°C° 0 mm 3 mps 768 mmHg 52%

    22 November, Thursday

    Time Temperature Precipitation Wind Pressure Humidity
    00:00 +12°C° 0 mm 3 mps 768 mmHg 52%
    01:00 +11°C° 0 mm 3 mps 768 mmHg 52%
    02:00 +11°C° 0 mm 3 mps 768 mmHg 52%
    03:00 +10°C° 0 mm 3 mps 768 mmHg 53%
    04:00 +10°C° 0 mm 2 mps 768 mmHg 54%
    05:00 +10°C° 0 mm 2 mps 768 mmHg 56%
    06:00 +10°C° 0 mm 2 mps 768 mmHg 57%
    07:00 +10°C° 0 mm 2 mps 768 mmHg 58%
    08:00 +10°C° 0 mm 2 mps 769 mmHg 59%
    09:00 +12°C° 0 mm 2 mps 769 mmHg 54%
    10:00 +14°C° 0 mm 2 mps 769 mmHg 48%
    11:00 +16°C° 0 mm 2 mps 769 mmHg 43%
    12:00 +16°C° 0 mm 2 mps 768 mmHg 40%
    13:00 +17°C° 0 mm 2 mps 767 mmHg 37%
    14:00 +18°C° 0 mm 2 mps 766 mmHg 34%
    15:00 +17°C° 0 mm 2 mps 766 mmHg 37%
    16:00 +17°C° 0 mm 2 mps 766 mmHg 39%
    17:00 +17°C° 0 mm 2 mps 765 mmHg 42%
    18:00 +16°C° 0 mm 2 mps 766 mmHg 44%
    19:00 +15°C° 0 mm 2 mps 766 mmHg 47%
    20:00 +14°C° 0 mm 2 mps 766 mmHg 49%
    21:00 +14°C° 0 mm 2 mps 766 mmHg 52%
    22:00 +13°C° 0 mm 2 mps 766 mmHg 54%
    23:00 +13°C° 0 mm 2 mps 766 mmHg 56%

    23 November, Friday

    Time Temperature Precipitation Wind Pressure Humidity
    00:00 +13°C° 0 mm 2 mps 766 mmHg 57%
    01:00 +13°C° 0 mm 1 mps 766 mmHg 58%
    02:00 +13°C° 0 mm 1 mps 765 mmHg 59%
    03:00 +13°C° 0 mm 1 mps 765 mmHg 61%
    04:00 +13°C° 0 mm 1 mps 765 mmHg 63%
    05:00 +12°C° 0 mm 2 mps 765 mmHg 64%
    06:00 +12°C° 0 mm 1 mps 765 mmHg 65%
    07:00 +12°C° 0 mm 1 mps 765 mmHg 66%
    08:00 +12°C° 0 mm 1 mps 765 mmHg 66%
    09:00 +14°C° 0 mm 1 mps 765 mmHg 61%
    10:00 +15°C° 0 mm 1 mps 765 mmHg 56%
    11:00 +16°C° 0 mm 1 mps 765 mmHg 51%
    12:00 +18°C° 0 mm 1 mps 765 mmHg 48%
    13:00 +19°C° 0 mm 1 mps 764 mmHg 46%
    14:00 +19°C° 0 mm 1 mps 763 mmHg 43%
    15:00 +19°C° 0 mm 1 mps 763 mmHg 45%
    16:00 +19°C° 0 mm 1 mps 763 mmHg 46%
    17:00 +17°C° 0 mm 0 mps 763 mmHg 48%
    18:00 +16°C° 0 mm 0 mps 763 mmHg 50%
    19:00 +16°C° 0 mm 1 mps 764 mmHg 51%
    20:00 +16°C° 0 mm 1 mps 764 mmHg 53%
    21:00 +15°C° 0 mm 1 mps 764 mmHg 54%
    22:00 +15°C° 0 mm 1 mps 765 mmHg 56%
    23:00 +15°C° 0 mm 1 mps 765 mmHg 58%
    Show more